FW2020 Weather Reports


Display with metric or nautical units.
time (UTC)temp
F
wind
direction
speed
MPH
gust
MPH
rain 1hr
in
rain 24hr
in
rain mn
in
humidity
%
barometer
mb
20260508082223 0 7 2.0 2.0 0.00 0.08 0.00 1011.0
20260508081245 40 293 1.0 2.0 0.00 0.09 0.00 68 1010.9
20260508080227 40 0.0 0.0 0.00 0.11 0.00 71 1010.5
20260508075231 40 0.0 0.0 0.00 0.11 0.00 72 1010.4
20260508074252 40 1.0 2.0 0.00 0.15 0.00 69 1010.4
20260508073216 40 0.0 0.0 0.00 0.22 0.00 66 1010.0
20260508072219 41 0.0 0.0 0.00 0.32 0.00 65 1010.0
20260508071223 41 0.0 0.0 0.00 0.33 0.00 66 1009.8
20260508070306 41 270 2.0 3.0 0.00 0.33 0.00 68 1009.8
20260508065221 41 0.0 1.0 0.00 0.33 0.00 65 1009.7
20260508064217 41 113 2.0 2.0 0.00 0.33 0.00 67 1009.7
20260508063233 41 155 2.0 2.0 0.00 0.33 0.00 68 1009.5
20260508062216 42 0.0 2.0 0.00 0.33 0.00 67 1009.5
20260508061240 43 293 1.0 2.0 0.00 0.33 0.00 65 1009.4
20260508060222 43 180 2.0 3.0 0.00 0.33 0.00 64 1009.4
20260508055224 43 23 2.0 2.0 0.00 0.33 0.00 63 1009.5
20260508054246 44 293 1.0 2.0 0.00 0.33 0.00 61 1009.5
20260508053229 45 0.0 0.0 0.00 0.33 0.00 59 1009.5
20260508052233 46 277 3.0 4.0 0.00 0.33 0.00 58 1009.5
20260508051216 46 3 3.0 4.0 0.00 0.33 0.00 58 1009.6
20260508050219 46 23 3.0 3.0 0.00 0.33 0.00 57 1009.7
20260508045243 47 270 3.0 3.0 0.00 0.33 0.00 56 1009.8
20260508044224 47 315 3.0 4.0 0.00 0.33 0.00 55 1009.9
20260508043226 47 293 4.0 5.0 0.00 0.33 0.00 56 1009.8
20260508042229 47 45 1.0 2.0 0.00 0.33 0.00 56 1009.8
20260508041225 47 113 2.0 3.0 0.00 0.33 0.00 57 1009.9
20260508040236 47 315 2.0 2.0 0.00 0.33 0.00 58 1009.9
20260508035219 46 45 3.0 4.0 0.00 0.33 0.33 58 1010.0
20260508034215 0 264 2.0 3.0 0.00 0.33 0.33 1009.9
20260508033225 46 338 1.0 2.0 0.00 0.33 0.33 59 1010.0
20260508032226 45 315 2.0 3.0 0.00 0.33 0.33 61 1010.0
20260508031228 45 248 2.0 4.0 0.00 0.33 0.33 65 1009.9
20260508030230 44 0.0 0.0 0.00 0.33 0.33 70 1010.1
20260508025235 44 0.0 0.0 0.00 0.33 0.33 67 1010.2
20260508024217 44 0.0 0.0 0.00 0.33 0.33 65 1010.4
20260508023220 45 0.0 0.0 0.00 0.33 0.33 63 1010.2
20260508022222 45 0.0 0.0 0.00 0.33 0.33 60 1010.2
20260508021226 46 225 1.0 2.0 0.00 0.33 0.33 61 1010.3
20260508020228 46 0.0 0.0 0.00 0.33 0.33 63 1010.3
20260508015229 46 293 2.0 2.0 0.00 0.33 0.33 64 1010.4
20260508014231 46 0.0 0.0 0.00 0.33 0.33 63 1010.1
20260508013216 47 0.0 0.0 0.00 0.33 0.33 60 1010.1
20260508012219 47 0.0 0.0 0.00 0.33 0.33 58 1010.1
20260508011221 48 0.0 0.0 0.00 0.33 0.33 57 1010.0
20260508010219 49 315 1.0 2.0 0.00 0.33 0.33 54 1009.8
20260508005227 50 0.0 0.0 0.00 0.33 0.33 50 1009.6
20260508004249 51 0.0 0.0 0.00 0.33 0.33 49 1009.3
20260508003313 52 13 2.0 3.0 0.00 0.33 0.33 45 1009.1
20260508002237 53 270 3.0 4.0 0.00 0.33 0.33 42 1009.1
20260508001219 54 295 3.0 3.0 0.00 0.33 0.33 40
20260508000223 0 274 1.0 2.0 0.00 0.33 0.33 1008.7
20260507235224 55 66 3.0 4.0 0.00 0.33 0.33 39 1008.5
20260507234226 56 297 2.0 2.0 0.00 0.33 0.33 40 1008.5
20260507233230 57 23 3.0 3.0 0.00 0.33 0.33 38 1008.3
20260507232232 59 113 2.0 2.0 0.00 0.33 0.33 36 1008.3
20260507231216 60 247 3.0 4.0 0.00 0.33 0.33 34 1008.3
20260507230218 62 225 4.0 4.0 0.00 0.33 0.33 34 1008.2
20260507225222 63 135 3.0 4.0 0.00 0.34 0.33 34 1008.1
20260507224224 65 270 4.0 6.0 0.00 0.34 0.33 32 1007.9
20260507223226 0 321 3.0 3.0 0.00 0.34 0.33 1007.8
20260507222223 66 285 4.0 5.0 0.00 0.34 0.33 29 1007.8
20260507221220 66 244 5.0 8.0 0.00 0.34 0.33 30 1007.7
20260507220216 67 360 3.0 5.0 0.00 0.34 0.33 30 1007.5
20260507215238 69 256 2.0 3.0 0.00 0.34 0.33 33 1007.5
20260507214220 70 230 4.0 5.0 0.00 0.34 0.33 29 1007.4
20260507213223 69 212 5.0 7.0 0.00 0.34 0.33 29 1007.3
20260507212226 68 23 3.0 3.0 0.00 0.34 0.33 29 1007.3
20260507211228 69 350 5.0 6.0 0.00 0.35 0.33 29 1007.2
20260507210230 69 250 3.0 4.0 0.00 0.35 0.33 28 1007.0
20260507205215 70 250 3.0 4.0 0.00 0.35 0.33 30 1007.1
20260507204217 70 248 4.0 5.0 0.00 0.35 0.33 28 1007.1
20260507203221 69 338 6.0 7.0 0.00 0.35 0.33 30 1007.0
20260507202223 69 180 3.0 4.0 0.00 0.35 0.33 32 1007.0
20260507201305 70 293 4.0 5.0 0.00 0.35 0.33 29 1007.0
20260507200227 68 5.0 6.0 0.00 0.35 0.33 28 1007.2
20260507195229 70 68 3.0 4.0 0.00 0.35 0.33 31 1007.2
20260507194226 70 45 3.0 4.0 0.00 0.35 0.33 29 1007.2
20260507193257 70 260 6.0 6.0 0.00 0.35 0.33 30 1007.4
20260507192219 71 202 3.0 3.0 0.00 0.36 0.33 33 1007.4
20260507191236 69 180 4.0 5.0 0.00 0.36 0.33 32 1007.6
20260507190224 69 191 5.0 6.0 0.00 0.36 0.33 33 1007.7
20260507185226 69 260 3.0 4.0 0.00 0.36 0.33 35 1007.8
20260507184229 69 228 4.0 5.0 0.00 0.36 0.33 33 1008.0
20260507183231 68 352 4.0 4.0 0.00 0.36 0.33 34 1008.0
20260507182216 69 281 4.0 5.0 0.00 0.36 0.33 33 1008.0
20260507181239 68 259 4.0 5.0 0.00 0.36 0.33 34 1008.3
20260507180222 66 324 4.0 6.0 0.00 0.36 0.33 33 1008.3
20260507175223 66 240 3.0 4.0 0.00 0.36 0.33 34 1008.4
20260507174227 67 293 6.0 7.0 0.00 0.36 0.33 35 1008.6
20260507173228 66 279 4.0 5.0 0.00 0.36 0.33 36 1008.6
20260507172231 66 316 4.0 5.0 0.00 0.36 0.33 34 1008.6
20260507171215 66 270 5.0 6.0 0.00 0.36 0.33 38 1008.7
20260507170218 66 23 5.0 5.0 0.00 0.36 0.33 36 1008.8
20260507165220 0 304 3.0 5.0 0.00 0.36 0.33 1009.1
20260507164222 65 313 6.0 7.0 0.00 0.36 0.33 39 1009.1
20260507163219 64 234 4.0 5.0 0.00 0.36 0.33 43 1009.2
20260507162217 64 248 3.0 3.0 0.00 0.36 0.33 48 1009.2
20260507161226 63 331 5.0 7.0 0.00 0.36 0.33 50 1009.4
20260507160247 0 231 4.0 5.0 0.00 0.36 0.33 1009.5
20260507155230 63 251 5.0 7.0 0.00 0.36 0.33 48 1009.5
20260507154232 63 315 3.0 4.0 0.00 0.36 0.33 51 1009.7
20260507153216 62 276 4.0 6.0 0.00 0.36 0.33 52 1009.7
20260507152218 62 146 5.0 7.0 0.00 0.36 0.33 58 1009.7
20260507151301 62 270 5.0 9.0 0.00 0.36 0.33 60 1009.6
20260507150244 63 19 4.0 5.0 0.00 0.36 0.33 60 1009.7
20260507145226 62 338 4.0 5.0 0.00 0.36 0.33 65 1009.8
20260507144248 61 256 2.0 3.0 0.00 0.36 0.33 71 1009.9
20260507143230 59 270 3.0 4.0 0.00 0.36 0.33 70 1009.7
20260507142215 59 268 4.0 5.0 0.00 0.36 0.33 75 1009.7
20260507141218 58 284 6.0 8.0 0.00 0.36 0.33 75 1009.9
20260507140220 58 68 3.0 4.0 0.00 0.36 0.33 77 1009.9
20260507135223 58 338 5.0 7.0 0.00 0.36 0.33 78 1010.0
20260507134219 56 315 4.0 5.0 0.00 0.36 0.33 83 1010.0
20260507133216 56 0.0 0.0 0.00 0.36 0.33 88 1010.1
20260507132231 54 277 2.0 2.0 0.00 0.36 0.33 91 1010.1
20260507131237 53 225 2.0 3.0 0.00 0.36 0.33 91 1010.3
20260507130217 53 0.0 2.0 0.00 0.36 0.33 92 1010.2
20260507125219 53 225 2.0 2.0 0.00 0.36 0.33 93 1010.1
20260507124222 52 0.0 0.0 0.00 0.36 0.33 95 1009.9
20260507123224 51 270 3.0 4.0 0.01 0.36 0.33 96 1010.1
20260507122227 51 1.0 2.0 0.01 0.36 0.33 97 1010.1
20260507121231 51 0.0 0.0 0.02 0.36 0.33 99 1009.9
20260507120233 51 203 1.0 3.0 0.03 0.36 0.33 99 1010.1
20260507115216 50 0.0 0.0 0.03 0.36 0.33 99 1010.2
20260507114219 50 0.0 0.0 0.04 0.36 0.33 99 1009.8
20260507113221 50 0.0 0.0 0.04 0.35 0.32 99 1009.7
20260507112223 49 0.0 0.0 0.04 0.35 0.32 99 1009.7
20260507111226 49 0.0 0.0 0.03 0.34 0.31 99 1009.8
20260507110303 49 0.0 0.0 0.02 0.33 0.30 99 1010.3
20260507105221 49 296 1.0 2.0 0.02 0.33 0.30 99 1010.0
20260507104215 49 0.0 0.0 0.02 0.32 0.29 99 1009.4
20260507103218 49 339 2.0 3.0 0.01 0.31 0.28 99 1009.1
20260507102220 49 0.0 0.0 0.01 0.31 0.28 99 1009.1
20260507101222 49 315 3.0 4.0 0.01 0.31 0.28 99 1009.0
20260507100225 50 0.0 0.0 0.02 0.31 0.28 99
20260507095228 50 0.0 0.0 0.02 0.31 0.28 99 1009.5
20260507094250 50 1.0 2.0 0.02 0.30 0.27 98 1009.2
20260507093233 50 0.0 1.0 0.02 0.30 0.27 98 1009.2
20260507092217 50 2 3.0 5.0 0.02 0.30 0.27 99 1009.2
20260507091219 51 315 5.0 6.0 0.03 0.30 0.27 99 1009.0
20260507090243 51 2.0 2.0 0.04 0.29 0.26 99 1008.6
20260507085225 51 0 3.0 3.0 0.04 0.29 0.26 99 1009.1
20260507084227 52 0.0 1.0 0.07 0.28 0.25 99 1008.8
20260507083252 52 0.0 0.0 0.14 0.28 0.25 99 1008.7